SAS682 LIRF-EKCH

Flight info

Callsign SAS682
Flight time 2h 3m
Altitude 38000
Route SOVAN DCT AMTEL DCT NUKNI DCT SUMIR DCT BRENO DCT KONIN DCT EXITI DCT EMBOX M726 ROSOK Q296 MONAK
Aircraft A320/M-SDE3FGHIJ1RWXYZ/ALB1

Departure

Time 2026-05-04 20:32
Airport Rome–Fiumicino Leonardo da Vinci International Airport (LIRF)

Arrival

Time 2026-05-04 22:35
Airport Copenhagen Kastrup Airport (EKCH)
Time Latitude Longitude Altitude Speed Heading
2026-05-04 20:04 41.79682 12.25459 16 ft 0 kts 115°
2026-05-04 20:19 41.79687 12.25445 14 ft 4 kts 114°
2026-05-04 20:20 41.79699 12.25414 18 ft 4 kts 138°
2026-05-04 20:20 41.79715 12.25401 14 ft 4 kts 145°
2026-05-04 20:20 41.79729 12.25375 14 ft 4 kts 98°
2026-05-04 20:20 41.79730 12.25382 15 ft 4 kts 86°
2026-05-04 20:21 41.79742 12.25412 14 ft 4 kts 47°
2026-05-04 20:21 41.79762 12.25426 14 ft 4 kts 25°
2026-05-04 20:21 41.79811 12.25457 15 ft 4 kts 25°
2026-05-04 20:22 41.79836 12.25473 14 ft 4 kts 25°
2026-05-04 20:22 41.79860 12.25488 15 ft 4 kts 25°
2026-05-04 20:22 41.79885 12.25503 14 ft 4 kts 25°
2026-05-04 20:22 41.79886 12.25504 14 ft 0 kts 25°
2026-05-04 20:25 41.79894 12.25510 15 ft 2 kts 25°
2026-05-04 20:25 41.79916 12.25523 14 ft 5 kts 25°
2026-05-04 20:25 41.79938 12.25558 14 ft 6 kts 80°
2026-05-04 20:25 41.79924 12.25619 15 ft 8 kts 115°
2026-05-04 20:26 41.79897 12.25696 14 ft 10 kts 115°
2026-05-04 20:26 41.79869 12.25780 16 ft 9 kts 106°
2026-05-04 20:26 41.79888 12.25832 14 ft 7 kts 34°
2026-05-04 20:26 41.79936 12.25862 14 ft 9 kts 24°
2026-05-04 20:27 41.79998 12.25900 15 ft 11 kts 24°
2026-05-04 20:27 41.80073 12.25946 14 ft 13 kts 24°
2026-05-04 20:27 41.80162 12.26000 14 ft 15 kts 24°
2026-05-04 20:27 41.80265 12.26065 15 ft 18 kts 25°
2026-05-04 20:28 41.80382 12.26137 15 ft 18 kts 24°
2026-05-04 20:28 41.80466 12.26175 16 ft 10 kts
2026-05-04 20:28 41.80522 12.26220 16 ft 11 kts 67°
2026-05-04 20:28 41.80552 12.26326 17 ft 13 kts 70°
2026-05-04 20:29 41.80587 12.26453 16 ft 16 kts 70°
2026-05-04 20:29 41.80627 12.26598 15 ft 18 kts 70°
2026-05-04 20:29 41.80674 12.26767 14 ft 21 kts 69°
2026-05-04 20:29 41.80726 12.26951 14 ft 16 kts 70°
2026-05-04 20:30 41.80768 12.27043 13 ft 9 kts 29°
2026-05-04 20:30 41.80834 12.27029 15 ft 11 kts 340°
2026-05-04 20:30 41.80904 12.26995 14 ft 11 kts 340°
2026-05-04 20:30 41.80962 12.26953 13 ft 8 kts 302°
2026-05-04 20:31 41.80946 12.26880 15 ft 13 kts 248°
2026-05-04 20:31 41.80842 12.26508 17 ft 77 kts 250°
2026-05-04 20:31 41.80588 12.25588 17 ft 131 kts 250°
2026-05-04 20:31 41.80226 12.24264 132 ft 161 kts 250°
2026-05-04 20:32 41.79839 12.22858 771 ft 161 kts 249°
2026-05-04 20:32 41.79430 12.21421 1262 ft 174 kts 248°
2026-05-04 20:32 41.79088 12.19751 1541 ft 201 kts 269°
2026-05-04 20:32 41.79641 12.17905 1929 ft 237 kts 307°
2026-05-04 20:33 41.81140 12.16700 2557 ft 266 kts 334°
2026-05-04 20:33 41.82962 12.16069 3293 ft 282 kts 342°
2026-05-04 20:33 41.84920 12.15618 4150 ft 288 kts 344°
2026-05-04 20:33 41.86908 12.15171 5026 ft 291 kts 343°
2026-05-04 20:34 41.88906 12.14646 5899 ft 294 kts 341°
2026-05-04 20:34 41.90909 12.14037 6747 ft 297 kts 339°
2026-05-04 20:34 41.92921 12.13357 7581 ft 300 kts 338°
2026-05-04 20:34 41.94944 12.12630 8403 ft 303 kts 338°
2026-05-04 20:35 41.96984 12.11873 9200 ft 306 kts 337°
2026-05-04 20:35 41.99044 12.11101 9984 ft 309 kts 338°
2026-05-04 20:35 42.01136 12.10311 10395 ft 327 kts 338°
2026-05-04 20:35 42.03398 12.09450 10715 ft 346 kts 338°
2026-05-04 20:36 42.05741 12.08567 11330 ft 353 kts 339°
2026-05-04 20:36 42.08122 12.07685 12009 ft 357 kts 339°
2026-05-04 20:36 42.10527 12.06799 12689 ft 360 kts 339°
2026-05-04 20:36 42.12957 12.05901 13354 ft 364 kts 339°
2026-05-04 20:37 42.15409 12.04996 14018 ft 367 kts 339°
2026-05-04 20:37 42.17885 12.04081 14658 ft 371 kts 340°
2026-05-04 20:37 42.20449 12.03426 15266 ft 378 kts 345°
2026-05-04 20:37 42.23019 12.02846 15865 ft 381 kts 345°
2026-05-04 20:38 42.25645 12.02255 16454 ft 384 kts 345°
2026-05-04 20:38 42.28292 12.01661 17022 ft 387 kts 346°
2026-05-04 20:38 42.30962 12.01061 17595 ft 390 kts 345°
2026-05-04 20:38 42.33651 12.00456 18166 ft 393 kts 346°
2026-05-04 20:39 42.36360 11.99850 18731 ft 397 kts 346°
2026-05-04 20:39 42.39092 11.99238 19294 ft 400 kts 346°
2026-05-04 20:39 42.41846 11.98619 19857 ft 403 kts 346°
2026-05-04 20:39 42.44588 11.98001 20404 ft 406 kts 346°
2026-05-04 20:40 42.47385 11.97370 20928 ft 409 kts 346°
2026-05-04 20:40 42.50207 11.96733 21436 ft 412 kts 346°
2026-05-04 20:40 42.53046 11.96090 21940 ft 415 kts 346°
2026-05-04 20:40 42.55904 11.95440 22425 ft 418 kts 346°
2026-05-04 20:41 42.58784 11.94787 22904 ft 421 kts 346°
2026-05-04 20:41 42.61683 11.94131 23391 ft 424 kts 346°
2026-05-04 20:41 42.64604 11.93469 23848 ft 427 kts 346°
2026-05-04 20:41 42.67503 11.92808 24293 ft 430 kts 346°
2026-05-04 20:42 42.70460 11.92133 24738 ft 432 kts 346°
2026-05-04 20:42 42.73437 11.91454 25162 ft 435 kts 346°
2026-05-04 20:42 42.76431 11.90770 25571 ft 438 kts 346°
2026-05-04 20:42 42.79445 11.90083 25985 ft 440 kts 346°
2026-05-04 20:43 42.82447 11.89250 26377 ft 439 kts 339°
2026-05-04 20:43 42.85296 11.87817 26753 ft 435 kts 329°
2026-05-04 20:43 42.87975 11.85907 27119 ft 435 kts 326°
2026-05-04 20:43 42.90615 11.83972 27464 ft 438 kts 326°
2026-05-04 20:44 42.93304 11.81999 27836 ft 440 kts 326°
2026-05-04 20:44 42.96006 11.80015 28184 ft 442 kts 326°
2026-05-04 20:44 42.98723 11.78022 28522 ft 445 kts 326°
2026-05-04 20:44 43.01456 11.76018 28862 ft 447 kts 326°
2026-05-04 20:45 43.04201 11.74004 29193 ft 449 kts 327°
2026-05-04 20:45 43.06963 11.71978 29519 ft 452 kts 327°
2026-05-04 20:45 43.09739 11.69937 29845 ft 454 kts 326°
2026-05-04 20:45 43.12485 11.67911 30155 ft 456 kts 326°
2026-05-04 20:46 43.15283 11.65843 30467 ft 458 kts 326°
2026-05-04 20:46 43.18094 11.63762 30767 ft 460 kts 327°
2026-05-04 20:46 43.21025 11.61943 31138 ft 466 kts 336°
2026-05-04 20:46 43.24174 11.60810 31553 ft 471 kts 347°
2026-05-04 20:47 43.27445 11.60369 31963 ft 473 kts 353°
2026-05-04 20:47 43.30732 11.60091 32368 ft 473 kts 353°
2026-05-04 20:47 43.33967 11.59816 32762 ft 472 kts 353°
2026-05-04 20:47 43.37241 11.59534 33158 ft 471 kts 353°
2026-05-04 20:48 43.40510 11.59248 33540 ft 470 kts 352°
2026-05-04 20:48 43.43773 11.58960 33915 ft 470 kts 352°
2026-05-04 20:48 43.47034 11.58668 34273 ft 469 kts 352°
2026-05-04 20:48 43.50286 11.58375 34623 ft 468 kts 352°
2026-05-04 20:49 43.53535 11.58082 34963 ft 468 kts 352°
2026-05-04 20:49 43.56735 11.57797 35288 ft 467 kts 352°
2026-05-04 20:49 43.59975 11.57509 35604 ft 466 kts 352°
2026-05-04 20:49 43.63208 11.57221 35920 ft 466 kts 352°
2026-05-04 20:50 43.66440 11.56932 36225 ft 465 kts 352°
2026-05-04 20:50 43.69667 11.56644 36508 ft 465 kts 352°
2026-05-04 20:50 43.72892 11.56358 36770 ft 464 kts 352°
2026-05-04 20:50 43.76119 11.56073 37018 ft 465 kts 352°
2026-05-04 20:51 43.79344 11.55789 37258 ft 464 kts 352°
2026-05-04 20:51 43.82528 11.55511 37485 ft 465 kts 353°
2026-05-04 20:51 43.85754 11.55247 37706 ft 465 kts 353°
2026-05-04 20:51 43.88983 11.54997 37895 ft 465 kts 353°
2026-05-04 20:52 43.95477 11.54518 37953 ft 469 kts 353°
2026-05-04 20:52 44.01993 11.54038 37955 ft 469 kts 353°
2026-05-04 20:53 44.08510 11.53537 37952 ft 469 kts 353°
2026-05-04 20:53 44.14979 11.53026 37947 ft 469 kts 353°
2026-05-04 20:54 44.21489 11.52494 37950 ft 469 kts 353°
2026-05-04 20:54 44.28003 11.51983 37954 ft 469 kts 353°
2026-05-04 20:55 44.34520 11.51485 37962 ft 469 kts 353°
2026-05-04 20:55 44.40998 11.50992 37965 ft 469 kts 353°
2026-05-04 20:56 44.47518 11.50479 37967 ft 469 kts 353°
2026-05-04 20:56 44.54038 11.49957 37966 ft 470 kts 353°
2026-05-04 20:57 44.60565 11.49437 37963 ft 470 kts 353°
2026-05-04 20:57 44.67044 11.48926 37967 ft 470 kts 353°
2026-05-04 20:58 44.73569 11.48407 37971 ft 470 kts 353°
2026-05-04 20:58 44.80093 11.47890 37963 ft 470 kts 353°
2026-05-04 20:59 44.86619 11.47369 37960 ft 470 kts 353°
2026-05-04 20:59 44.93100 11.46846 37972 ft 470 kts 353°
2026-05-04 21:00 44.99623 11.46324 37972 ft 470 kts 353°
2026-05-04 21:00 45.06150 11.45815 37973 ft 470 kts 353°
2026-05-04 21:01 45.12676 11.45290 37974 ft 470 kts 353°
2026-05-04 21:01 45.19163 11.44765 37975 ft 470 kts 353°
2026-05-04 21:02 45.25691 11.44233 37976 ft 470 kts 353°
2026-05-04 21:02 45.32224 11.43707 37961 ft 470 kts 353°
2026-05-04 21:03 45.38762 11.43172 37977 ft 470 kts 353°
2026-05-04 21:03 45.45251 11.42637 37960 ft 470 kts 353°
2026-05-04 21:04 45.51781 11.42095 37969 ft 470 kts 353°
2026-05-04 21:04 45.58312 11.41561 37976 ft 470 kts 353°
2026-05-04 21:05 45.64840 11.41033 37970 ft 470 kts 353°
2026-05-04 21:05 45.71323 11.40504 37962 ft 470 kts 353°
2026-05-04 21:06 45.77848 11.39966 37965 ft 470 kts 353°
2026-05-04 21:06 45.84372 11.39425 37965 ft 469 kts 353°
2026-05-04 21:07 45.90889 11.38889 37967 ft 469 kts 353°
2026-05-04 21:07 45.97361 11.38357 37971 ft 469 kts 353°
2026-05-04 21:08 46.03874 11.37815 37970 ft 469 kts 353°
2026-05-04 21:08 46.10393 11.37266 37954 ft 469 kts 353°
2026-05-04 21:09 46.16865 11.36723 37965 ft 469 kts 353°
2026-05-04 21:09 46.23375 11.36185 37964 ft 468 kts 353°
2026-05-04 21:10 46.29904 11.35856 37962 ft 471 kts 356°
2026-05-04 21:10 46.36457 11.36047 37967 ft 472 kts 358°
2026-05-04 21:11 46.43019 11.36361 37955 ft 472 kts 358°
2026-05-04 21:11 46.49585 11.36571 37968 ft 471 kts 357°
2026-05-04 21:12 46.56103 11.36705 37972 ft 472 kts 357°
2026-05-04 21:12 46.62672 11.36829 37973 ft 472 kts 357°
2026-05-04 21:13 46.69243 11.36980 37969 ft 472 kts 358°
2026-05-04 21:13 46.75771 11.37151 37971 ft 472 kts 358°
2026-05-04 21:14 46.82339 11.37312 37969 ft 472 kts 358°
2026-05-04 21:14 46.88903 11.37460 37968 ft 471 kts 357°
2026-05-04 21:15 46.95462 11.37611 37963 ft 471 kts 357°
2026-05-04 21:15 47.01973 11.37713 37962 ft 471 kts 356°
2026-05-04 21:16 47.08521 11.37634 37955 ft 470 kts 355°
2026-05-04 21:16 47.15066 11.37510 37966 ft 471 kts 355°
2026-05-04 21:17 47.21618 11.37423 37969 ft 471 kts 356°
2026-05-04 21:17 47.28129 11.37365 37966 ft 471 kts 356°
2026-05-04 21:18 47.34690 11.37317 37973 ft 471 kts 356°
2026-05-04 21:18 47.41247 11.37260 37974 ft 471 kts 356°
2026-05-04 21:19 47.47802 11.37189 37973 ft 471 kts 356°
2026-05-04 21:19 47.54309 11.37121 37962 ft 471 kts 356°
2026-05-04 21:20 47.60866 11.37054 37961 ft 471 kts 356°
2026-05-04 21:20 47.67424 11.36984 37974 ft 471 kts 356°
2026-05-04 21:21 47.73980 11.36920 37972 ft 471 kts 356°
2026-05-04 21:21 47.80490 11.36862 37975 ft 471 kts 356°
2026-05-04 21:22 47.87044 11.36805 37974 ft 471 kts 356°
2026-05-04 21:22 47.93605 11.36907 37974 ft 472 kts 358°
2026-05-04 21:23 48.00167 11.37110 37971 ft 472 kts 358°
2026-05-04 21:23 48.06685 11.37295 37974 ft 472 kts 357°
2026-05-04 21:24 48.13248 11.37436 37974 ft 471 kts 357°
2026-05-04 21:24 48.19808 11.37569 37971 ft 472 kts 357°
2026-05-04 21:25 48.26368 11.37717 37975 ft 472 kts 357°
2026-05-04 21:25 48.32930 11.37874 37975 ft 472 kts 357°
2026-05-04 21:26 48.39449 11.38023 37975 ft 472 kts 357°
2026-05-04 21:26 48.46013 11.38165 37961 ft 472 kts 357°
2026-05-04 21:27 48.52572 11.38310 37963 ft 472 kts 357°
2026-05-04 21:27 48.59090 11.38459 37975 ft 472 kts 357°
2026-05-04 21:28 48.65652 11.38613 37974 ft 472 kts 357°
2026-05-04 21:28 48.72214 11.38762 37964 ft 472 kts 357°
2026-05-04 21:29 48.78778 11.38914 37975 ft 472 kts 357°
2026-05-04 21:29 48.85296 11.39065 37971 ft 472 kts 357°
2026-05-04 21:30 48.91860 11.39218 37976 ft 472 kts 357°
2026-05-04 21:30 48.98422 11.39372 37972 ft 472 kts 357°
2026-05-04 21:31 49.08266 11.39596 37966 ft 472 kts 357°
2026-05-04 21:32 49.14783 11.39744 37975 ft 472 kts 357°
2026-05-04 21:32 49.21348 11.39899 37968 ft 472 kts 357°
2026-05-04 21:33 49.27911 11.40045 37976 ft 472 kts 357°
2026-05-04 21:33 49.34475 11.40201 37964 ft 472 kts 358°
2026-05-04 21:34 49.40994 11.40374 37976 ft 472 kts 357°
2026-05-04 21:34 49.47559 11.40532 37976 ft 472 kts 357°
2026-05-04 21:35 49.54124 11.40677 37973 ft 472 kts 357°
2026-05-04 21:35 49.60684 11.40745 37976 ft 471 kts 356°
2026-05-04 21:36 49.67188 11.40573 37970 ft 471 kts 355°
2026-05-04 21:36 49.73736 11.40340 37976 ft 471 kts 355°
2026-05-04 21:37 49.80284 11.40173 37969 ft 471 kts 355°
2026-05-04 21:37 49.86837 11.40050 37966 ft 471 kts 355°
2026-05-04 21:38 49.93344 11.39925 37977 ft 471 kts 355°
2026-05-04 21:38 49.99897 11.39775 37976 ft 471 kts 355°
2026-05-04 21:39 50.06445 11.39630 37971 ft 471 kts 355°
2026-05-04 21:39 50.12995 11.39481 37976 ft 471 kts 355°
2026-05-04 21:40 50.19500 11.39325 37967 ft 471 kts 355°
2026-05-04 21:40 50.26049 11.39171 37972 ft 471 kts 355°
2026-05-04 21:41 50.32598 11.39028 37972 ft 471 kts 355°
2026-05-04 21:41 50.39146 11.38887 37976 ft 471 kts 355°
2026-05-04 21:42 50.45653 11.38745 37966 ft 471 kts 355°
2026-05-04 21:42 50.52201 11.38581 37963 ft 471 kts 355°
2026-05-04 21:43 50.58748 11.38421 37971 ft 470 kts 355°
2026-05-04 21:43 50.65294 11.38258 37970 ft 471 kts 355°
2026-05-04 21:44 50.71799 11.38118 37967 ft 470 kts 355°
2026-05-04 21:44 50.78347 11.37973 37969 ft 471 kts 355°
2026-05-04 21:45 50.84893 11.37831 37970 ft 470 kts 355°
2026-05-04 21:45 50.91436 11.37675 37975 ft 470 kts 355°
2026-05-04 21:46 50.97939 11.37523 37966 ft 470 kts 355°
2026-05-04 21:46 51.04484 11.37378 37975 ft 470 kts 355°
2026-05-04 21:47 51.11029 11.37233 37975 ft 470 kts 355°
2026-05-04 21:47 51.17572 11.37080 37971 ft 470 kts 355°
2026-05-04 21:48 51.24072 11.36929 37961 ft 470 kts 355°
2026-05-04 21:48 51.30615 11.36769 37974 ft 470 kts 355°
2026-05-04 21:49 51.37156 11.36613 37966 ft 470 kts 355°
2026-05-04 21:49 51.43701 11.36455 37966 ft 470 kts 355°
2026-05-04 21:50 51.50196 11.36292 37975 ft 470 kts 355°
2026-05-04 21:50 51.56740 11.36135 37974 ft 470 kts 355°
2026-05-04 21:51 51.63283 11.35996 37975 ft 470 kts 355°
2026-05-04 21:51 51.69825 11.35839 37972 ft 470 kts 355°
2026-05-04 21:52 51.76322 11.35676 37975 ft 470 kts 355°
2026-05-04 21:52 51.82867 11.35515 37975 ft 470 kts 355°
2026-05-04 21:53 51.89413 11.35364 37976 ft 470 kts 355°
2026-05-04 21:53 51.95915 11.35208 37963 ft 470 kts 355°
2026-05-04 21:54 52.02460 11.35043 37969 ft 470 kts 355°
2026-05-04 21:54 52.09006 11.35592 37974 ft 473 kts
2026-05-04 21:55 52.15546 11.36902 37971 ft 473 kts
2026-05-04 21:55 52.22087 11.38195 37965 ft 474 kts
2026-05-04 21:56 52.28585 11.39481 37971 ft 474 kts
2026-05-04 21:56 52.35129 11.40779 37968 ft 474 kts
2026-05-04 21:57 52.41673 11.42084 37972 ft 474 kts
2026-05-04 21:57 52.48218 11.43395 37964 ft 474 kts
2026-05-04 21:58 52.54720 11.44704 37968 ft 474 kts
2026-05-04 21:58 52.61266 11.46023 37974 ft 474 kts
2026-05-04 21:59 52.67816 11.47345 37974 ft 474 kts
2026-05-04 21:59 52.74365 11.48669 37975 ft 474 kts
2026-05-04 22:00 52.80870 11.49991 37971 ft 474 kts
2026-05-04 22:00 52.87422 11.51329 37976 ft 474 kts
2026-05-04 22:01 52.93970 11.52681 37977 ft 474 kts
2026-05-04 22:01 53.00522 11.54030 37977 ft 474 kts
2026-05-04 22:02 53.07029 11.55367 37976 ft 474 kts
2026-05-04 22:02 53.13576 11.56714 37969 ft 474 kts
2026-05-04 22:03 53.20125 11.58070 37971 ft 474 kts
2026-05-04 22:03 53.26638 11.59858 37973 ft 477 kts 14°
2026-05-04 22:04 53.32955 11.63008 37974 ft 477 kts 14°
2026-05-04 22:04 53.39321 11.66165 37974 ft 477 kts 14°
2026-05-04 22:05 53.45686 11.69327 37967 ft 477 kts 14°
2026-05-04 22:05 53.52049 11.72507 37973 ft 477 kts 14°
2026-05-04 22:06 53.58365 11.75681 37972 ft 477 kts 14°
2026-05-04 22:06 53.64721 11.78876 37965 ft 477 kts 14°
2026-05-04 22:07 53.71075 11.82083 37971 ft 477 kts 14°
2026-05-04 22:07 53.77384 11.85287 37972 ft 477 kts 14°
2026-05-04 22:08 53.83737 11.88517 37973 ft 477 kts 14°
2026-05-04 22:08 53.90089 11.91748 37698 ft 478 kts 14°
2026-05-04 22:08 53.93316 11.93391 36552 ft 490 kts 14°
2026-05-04 22:09 53.96583 11.95059 35410 ft 490 kts 14°
2026-05-04 22:09 53.99797 11.96710 34369 ft 487 kts 15°
2026-05-04 22:09 54.03023 11.98375 33430 ft 482 kts 14°
2026-05-04 22:09 54.06214 12.00021 32529 ft 476 kts 14°
2026-05-04 22:10 54.09366 12.01650 31649 ft 470 kts 14°
2026-05-04 22:10 54.12479 12.03262 30764 ft 464 kts 14°
2026-05-04 22:10 54.15549 12.04856 29882 ft 458 kts 14°
2026-05-04 22:10 54.18579 12.06430 29121 ft 450 kts 14°
2026-05-04 22:11 54.21524 12.07960 28706 ft 435 kts 14°
2026-05-04 22:11 54.24404 12.09458 28298 ft 432 kts 14°
2026-05-04 22:11 54.27233 12.10928 27887 ft 430 kts 14°
2026-05-04 22:11 54.30090 12.12412 27458 ft 429 kts 14°
2026-05-04 22:12 54.32939 12.13892 27033 ft 427 kts 14°
2026-05-04 22:12 54.35782 12.15372 26602 ft 427 kts 14°
2026-05-04 22:12 54.38619 12.16851 26161 ft 426 kts 14°
2026-05-04 22:12 54.41451 12.18332 25718 ft 425 kts 14°
2026-05-04 22:13 54.44284 12.19815 25259 ft 425 kts 14°
2026-05-04 22:13 54.47109 12.21301 24807 ft 425 kts 14°
2026-05-04 22:13 54.49895 12.22771 24321 ft 424 kts 14°
2026-05-04 22:13 54.52712 12.24258 23929 ft 422 kts 14°
2026-05-04 22:14 54.55507 12.25735 23368 ft 417 kts 14°
2026-05-04 22:14 54.58238 12.27180 22916 ft 404 kts 14°
2026-05-04 22:14 54.60902 12.28389 22466 ft 388 kts
2026-05-04 22:14 54.63529 12.28801 22034 ft 372 kts 358°
2026-05-04 22:15 54.66079 12.29001 21622 ft 363 kts 358°
2026-05-04 22:15 54.68606 12.29204 21203 ft 364 kts 358°
2026-05-04 22:15 54.71098 12.29409 20793 ft 364 kts 358°
2026-05-04 22:15 54.73624 12.29619 20375 ft 363 kts 358°
2026-05-04 22:16 54.76150 12.29830 19958 ft 363 kts 358°
2026-05-04 22:16 54.78673 12.30043 19541 ft 363 kts 358°
2026-05-04 22:16 54.81195 12.30253 19122 ft 363 kts 358°
2026-05-04 22:16 54.83714 12.30459 18698 ft 362 kts 358°
2026-05-04 22:17 54.86227 12.30663 18288 ft 361 kts 358°
2026-05-04 22:17 54.88738 12.30872 17875 ft 361 kts 358°
2026-05-04 22:17 54.91209 12.31084 17461 ft 360 kts 358°
2026-05-04 22:17 54.93699 12.31654 17041 ft 364 kts 12°
2026-05-04 22:18 54.96066 12.33243 16597 ft 367 kts 27°
2026-05-04 22:18 54.98213 12.35642 16170 ft 367 kts 33°
2026-05-04 22:18 55.00327 12.38134 15742 ft 367 kts 33°
2026-05-04 22:18 55.02440 12.40614 15338 ft 365 kts 33°
2026-05-04 22:19 55.04549 12.43077 14934 ft 364 kts 33°
2026-05-04 22:19 55.06651 12.45524 14523 ft 363 kts 33°
2026-05-04 22:19 55.08717 12.47932 14120 ft 361 kts 33°
2026-05-04 22:19 55.10804 12.50369 13708 ft 360 kts 33°
2026-05-04 22:20 55.12882 12.52802 13299 ft 359 kts 33°
2026-05-04 22:20 55.14953 12.55231 12901 ft 358 kts 33°
2026-05-04 22:20 55.17017 12.57654 12492 ft 357 kts 33°
2026-05-04 22:20 55.19074 12.60075 12083 ft 356 kts 33°
2026-05-04 22:21 55.21126 12.62494 11672 ft 355 kts 33°
2026-05-04 22:21 55.23219 12.64765 11266 ft 353 kts 24°
2026-05-04 22:21 55.25456 12.66224 11065 ft 341 kts 14°
2026-05-04 22:21 55.27678 12.67478 10637 ft 331 kts 14°
2026-05-04 22:22 55.29830 12.68706 10188 ft 320 kts 15°
2026-05-04 22:22 55.31918 12.69904 9744 ft 311 kts 14°
2026-05-04 22:22 55.33932 12.71062 9401 ft 299 kts 14°
2026-05-04 22:22 55.35891 12.72184 9052 ft 293 kts 14°
2026-05-04 22:23 55.37820 12.73291 8744 ft 292 kts 14°
2026-05-04 22:23 55.39723 12.74380 8464 ft 291 kts 14°
2026-05-04 22:23 55.41643 12.75477 8173 ft 289 kts 14°
2026-05-04 22:23 55.43550 12.76572 7883 ft 287 kts 14°
2026-05-04 22:24 55.45445 12.77660 7601 ft 285 kts 14°
2026-05-04 22:24 55.47330 12.78740 7317 ft 284 kts 14°
2026-05-04 22:24 55.49205 12.79816 7033 ft 282 kts 14°
2026-05-04 22:24 55.51066 12.80889 6751 ft 280 kts 14°
2026-05-04 22:25 55.52916 12.81959 6474 ft 279 kts 14°
2026-05-04 22:25 55.54732 12.83009 6200 ft 278 kts 14°
2026-05-04 22:25 55.56558 12.84108 5922 ft 277 kts 17°
2026-05-04 22:25 55.58351 12.85338 5660 ft 276 kts 19°
2026-05-04 22:26 55.60120 12.86626 5404 ft 274 kts 19°
2026-05-04 22:26 55.61871 12.87933 5133 ft 273 kts 21°
2026-05-04 22:26 55.63475 12.89735 4890 ft 274 kts 37°
2026-05-04 22:26 55.64898 12.91996 4720 ft 275 kts 39°
2026-05-04 22:27 55.66305 12.94211 4552 ft 272 kts 38°
2026-05-04 22:27 55.67708 12.96385 4407 ft 263 kts 38°
2026-05-04 22:27 55.69060 12.98487 4281 ft 254 kts 38°
2026-05-04 22:27 55.70358 13.00528 4151 ft 245 kts 38°
2026-05-04 22:28 55.71627 13.02506 3780 ft 245 kts 32°
2026-05-04 22:28 55.73142 13.03540 3602 ft 226 kts 358°
2026-05-04 22:28 55.74616 13.03101 3478 ft 208 kts 332°
2026-05-04 22:28 55.75719 13.01701 3469 ft 192 kts 309°
2026-05-04 22:29 55.76359 12.99747 3471 ft 180 kts 287°
2026-05-04 22:29 55.76512 12.97568 3472 ft 180 kts 266°
2026-05-04 22:29 55.76256 12.95383 3493 ft 182 kts 259°
2026-05-04 22:29 55.75959 12.93194 3504 ft 182 kts 259°
2026-05-04 22:30 55.75664 12.91004 3500 ft 182 kts 259°
2026-05-04 22:30 55.75372 12.88813 3506 ft 183 kts 259°
2026-05-04 22:30 55.75013 12.86668 3390 ft 188 kts 247°
2026-05-04 22:30 55.74169 12.84859 3093 ft 193 kts 226°
2026-05-04 22:31 55.73162 12.83296 2780 ft 191 kts 226°
2026-05-04 22:31 55.72173 12.81751 2509 ft 188 kts 225°
2026-05-04 22:31 55.71201 12.80237 2267 ft 184 kts 225°
2026-05-04 22:31 55.70248 12.78750 2028 ft 181 kts 224°
2026-05-04 22:32 55.69311 12.77287 1787 ft 176 kts 224°
2026-05-04 22:32 55.68414 12.75892 1556 ft 166 kts 224°
2026-05-04 22:32 55.67589 12.74610 1343 ft 154 kts 223°
2026-05-04 22:32 55.66808 12.73394 1148 ft 146 kts 223°
2026-05-04 22:33 55.66054 12.72220 958 ft 143 kts 224°
2026-05-04 22:33 55.65306 12.71065 774 ft 142 kts 223°
2026-05-04 22:33 55.64561 12.69921 562 ft 142 kts 223°
2026-05-04 22:33 55.63829 12.68767 389 ft 141 kts 222°
2026-05-04 22:34 55.63086 12.67631 214 ft 141 kts 223°
2026-05-04 22:34 55.62357 12.66484 27 ft 140 kts 223°
2026-05-04 22:34 55.61726 12.65497 17 ft 100 kts 221°
2026-05-04 22:34 55.61332 12.64885 18 ft 52 kts 222°
2026-05-04 22:35 55.61236 12.64645 17 ft 16 kts 277°
2026-05-04 22:35 55.61221 12.64437 19 ft 19 kts 249°
2026-05-04 22:35 55.61179 12.64213 17 ft 20 kts 264°
2026-05-04 22:35 55.61260 12.64104 17 ft 16 kts 13°
2026-05-04 22:36 55.61364 12.64210 18 ft 19 kts 32°
2026-05-04 22:36 55.61482 12.64343 17 ft 22 kts 33°
2026-05-04 22:36 55.61605 12.64484 18 ft 19 kts 32°
2026-05-04 22:36 55.61714 12.64609 17 ft 18 kts 34°
2026-05-04 22:37 55.61821 12.64736 17 ft 20 kts 33°
2026-05-04 22:37 55.61943 12.64877 18 ft 22 kts 33°
2026-05-04 22:37 55.62064 12.65016 18 ft 22 kts 33°
2026-05-04 22:37 55.62184 12.65152 18 ft 17 kts 31°
2026-05-04 22:38 55.62247 12.65148 19 ft 10 kts 309°
2026-05-04 22:38 55.62294 12.65023 18 ft 14 kts 303°
2026-05-04 22:38 55.62352 12.64863 18 ft 17 kts 303°
2026-05-04 22:38 55.62424 12.64669 18 ft 20 kts 303°
2026-05-04 22:39 55.62486 12.64505 17 ft 5 kts 311°
2026-05-04 22:39 55.62527 12.64495 17 ft 8 kts 15°
2026-05-04 22:39 55.62558 12.64510 17 ft 2 kts 15°
2026-05-04 22:39 55.62563 12.64513 17 ft 0 kts 16°